Weather History for Olean, NY

Change the Weather History Date:

Thursday, June 13, 2013

  Actual Average (KBFD) Record (KBFD)
Temperature  
Mean Temperature 58 °F 61 °F  
Max Temperature 64 °F 73 °F 86 °F (1967)
Min Temperature 51 °F 49 °F 30 °F (1979)
Degree Days  
Heating Degree Days 8 2  
Month to date heating degree days 39  
Since 1 June heating degree days 39  
Since 1 July heating degree days 7667  
Cooling Degree Days 0 1  
Month to date cooling degree days 13  
Year to date cooling degree days 23  
Since 1 June cooling degree days 13  
Growing Degree Days 8 (Base 50)    
Moisture  
Dew Point 57 °F    
Average Humidity 97    
Maximum Humidity 100    
Minimum Humidity 77    
Precipitation  
Precipitation 0.00 in 0.17 in 2.02 in (1994)
Month to date precipitation 2.15  
Year to date precipitation 18.89  
Sea Level Pressure  
Sea Level Pressure 29.64 in    
Wind  
Wind Speed 6 mph (NW)    
Max Wind Speed 15 mph    
Max Gust Speed 25 mph    
Visibility 8 miles    
Events Rain , Thunderstorm    
T = Trace of Precipitation, MM = Missing Value Source: NWS Daily Summary

Daily Weather History Graph

Daily Weather History Graph

Search for Another Location

Airport:

Trip Planner

Search our weather history database for the weather conditions in past years. The results will help you decide how hot, cold, wet, or windy it might be!

Date:

Astronomy

Jun. 13, 2013 Rise Set
Actual Time 5:36 AM EDT 8:50 PM EDT
Civil Twilight 5:01 AM EDT 9:25 PM EDT
Nautical Twilight 4:17 AM EDT 10:10 PM EDT
Astronomical Twilight 3:23 AM EDT 11:04 PM EDT
Moon 10:15 AM EDT (6/13) 11:51 PM EDT (6/13)
Length of Visible Light 16h 23m
Length of Day
15h 14m
Waxing Crescent, 21% of the Moon is Illuminated
Jun 13
Waxing Crescent
Jun 16
First Quarter
Jun 23
Full
Jun 30
Last Quarter
Jul 8
New

Hourly Weather History & Observations

Time (EDT) Temp. Dew Point Humidity Pressure Visibility Wind Dir Wind Speed Gust Speed Precip Events Conditions
12:15 AM 62.6 °F 55.4 °F 77% 29.82 in 10.0 mi Calm Calm - N/A   Drizzle
12:35 AM 62.6 °F 55.4 °F 77% 29.82 in 10.0 mi SSW 3.5 mph - N/A Rain Rain
12:55 AM 60.8 °F 57.2 °F 88% 29.80 in 10.0 mi South 4.6 mph - N/A Rain , Thunderstorm Light Thunderstorms and Rain
1:35 AM 60.8 °F 57.2 °F 88% 29.79 in 10.0 mi SSW 3.5 mph - N/A Rain Light Rain
1:55 AM 60.8 °F 57.2 °F 88% 29.78 in 10.0 mi SSW 4.6 mph - N/A   Overcast
2:15 AM 60.8 °F 57.2 °F 88% 29.77 in 10.0 mi South 5.8 mph - N/A Rain Light Rain
2:35 AM 59.0 °F 57.2 °F 94% 29.75 in 10.0 mi SSE 6.9 mph - N/A Rain Light Rain
2:55 AM 59.0 °F 59.0 °F 100% 29.72 in 10.0 mi SSE 4.6 mph - N/A Rain Light Rain
3:15 AM 59.0 °F 59.0 °F 100% 29.71 in 10.0 mi SSE 4.6 mph - N/A   Mostly Cloudy
3:35 AM 60.8 °F 59.0 °F 94% 29.70 in 10.0 mi SSE 4.6 mph - N/A   Scattered Clouds
3:55 AM 59.0 °F 59.0 °F 100% 29.68 in 10.0 mi South 5.8 mph - N/A Thunderstorm Scattered Clouds
4:15 AM 59.0 °F 59.0 °F 100% 29.67 in 10.0 mi South 5.8 mph - N/A   Mostly Cloudy
4:35 AM 59.0 °F 59.0 °F 100% 29.67 in 10.0 mi South 4.6 mph - N/A Thunderstorm Mostly Cloudy
4:55 AM 59.0 °F 59.0 °F 100% 29.66 in 10.0 mi South 5.8 mph - N/A   Overcast
5:15 AM 59.0 °F 59.0 °F 100% 29.65 in 7.0 mi South 8.1 mph - N/A Rain , Thunderstorm Light Thunderstorms and Rain
5:35 AM 59.0 °F 59.0 °F 100% 29.63 in 5.0 mi SSE 5.8 mph - N/A Rain Light Rain
5:55 AM 59.0 °F 59.0 °F 100% 29.62 in 4.0 mi SSE 8.1 mph - N/A Rain , Thunderstorm Rain
6:15 AM 60.8 °F 60.8 °F 100% 29.61 in 4.0 mi SSE 4.6 mph - N/A Rain Rain
6:35 AM 60.8 °F 60.8 °F 100% 29.60 in 2.5 mi SSE 5.8 mph - N/A Rain Rain
6:55 AM 60.8 °F 60.8 °F 100% 29.57 in 5.0 mi SE 9.2 mph - N/A Rain Light Rain
7:15 AM 60.8 °F 60.8 °F 100% 29.55 in 7.0 mi SE 4.6 mph - N/A   Light Drizzle
7:35 AM 60.8 °F 60.8 °F 100% 29.54 in 10.0 mi SE 5.8 mph - N/A   Overcast
7:55 AM 60.8 °F 60.8 °F 100% 29.54 in 10.0 mi SE 5.8 mph - N/A   Overcast
8:15 AM 60.8 °F 60.8 °F 100% 29.54 in 10.0 mi South 5.8 mph - N/A   Overcast
8:35 AM 60.8 °F 60.8 °F 100% 29.54 in 10.0 mi South 4.6 mph - N/A   Overcast
8:55 AM 60.8 °F 60.8 °F 100% 29.54 in 10.0 mi South 4.6 mph - N/A   Overcast
9:15 AM 60.8 °F 60.8 °F 100% 29.53 in 10.0 mi South 3.5 mph - N/A   Overcast
9:35 AM 60.8 °F 60.8 °F 100% 29.53 in 3.0 mi South 6.9 mph - N/A Rain Rain
9:55 AM 60.8 °F 60.8 °F 100% 29.52 in 3.0 mi South 3.5 mph - N/A Rain Rain
10:15 AM 60.8 °F 60.8 °F 100% 29.52 in 4.0 mi Calm Calm - N/A Rain Heavy Rain
10:35 AM 62.6 °F 60.8 °F 94% 29.50 in 5.0 mi South 3.5 mph - N/A Rain Rain
10:55 AM 62.6 °F 60.8 °F 94% 29.50 in 3.0 mi Calm Calm - N/A   Heavy Drizzle
11:15 AM 62.6 °F 62.6 °F 100% 29.50 in 2.5 mi South 3.5 mph - N/A Rain Rain
11:35 AM 62.6 °F 62.6 °F 100% 29.50 in 3.0 mi Calm Calm - N/A Rain Rain
11:55 AM 62.6 °F 60.8 °F 94% 29.50 in 2.5 mi Calm Calm - N/A Rain Heavy Rain
12:15 PM 62.6 °F 62.6 °F 100% 29.50 in 7.0 mi Calm Calm - N/A Rain Light Rain
12:35 PM 64.4 °F 62.6 °F 94% 29.50 in 10.0 mi NNW 5.8 mph - N/A Rain Light Rain
12:55 PM 64.4 °F 62.6 °F 94% 29.49 in 10.0 mi NW 6.9 mph - N/A   Overcast
1:15 PM 62.6 °F 60.8 °F 94% 29.50 in 7.0 mi NNW 8.1 mph - N/A Rain Rain
1:35 PM 60.8 °F 60.8 °F 100% 29.50 in 5.0 mi NNW 11.5 mph 19.6 mph N/A   Overcast
1:55 PM 59.0 °F 59.0 °F 100% 29.52 in 1.0 mi NNW 15.0 mph 23.0 mph N/A Rain Light Rain
2:15 PM 57.2 °F 57.2 °F 100% 29.54 in 2.5 mi NNW 11.5 mph 20.7 mph N/A   Drizzle
2:35 PM 57.2 °F 57.2 °F 100% 29.56 in 1.8 mi NNW 8.1 mph - N/A   Drizzle
2:55 PM 57.2 °F 55.4 °F 94% 29.57 in 3.0 mi NNW 9.2 mph 19.6 mph N/A Rain Light Rain
3:15 PM 57.2 °F 55.4 °F 94% 29.58 in 3.0 mi NNW 9.2 mph 18.4 mph N/A Rain Rain
3:35 PM 55.4 °F 55.4 °F 100% 29.60 in 10.0 mi NNW 12.7 mph 17.3 mph N/A   Drizzle
3:55 PM 55.4 °F 55.4 °F 100% 29.61 in 10.0 mi North 13.8 mph 18.4 mph N/A Rain Rain
4:15 PM 55.4 °F 55.4 °F 100% 29.61 in 10.0 mi NNW 9.2 mph 19.6 mph N/A Rain Light Rain
4:35 PM 55.4 °F 55.4 °F 100% 29.62 in 7.0 mi North 10.4 mph 21.9 mph N/A   Overcast
4:55 PM 55.4 °F 55.4 °F 100% 29.63 in 10.0 mi NNW 10.4 mph 18.4 mph N/A   Overcast
5:15 PM 55.4 °F 53.6 °F 94% 29.64 in 5.0 mi North 10.4 mph 25.3 mph N/A Rain Light Rain
5:35 PM 53.6 °F 53.6 °F 100% 29.65 in 5.0 mi NNW 11.5 mph 20.7 mph N/A   Light Drizzle
5:55 PM 53.6 °F 53.6 °F 100% 29.67 in 10.0 mi North 10.4 mph 23.0 mph N/A   Drizzle
6:15 PM 53.6 °F 53.6 °F 100% 29.68 in 4.0 mi North 9.2 mph 20.7 mph N/A Rain Rain
6:35 PM 53.6 °F 51.8 °F 94% 29.68 in 7.0 mi NNW 9.2 mph 18.4 mph N/A   Drizzle
6:55 PM 53.6 °F 51.8 °F 94% 29.69 in 10.0 mi North 11.5 mph 17.3 mph N/A   Overcast
7:15 PM 53.6 °F 51.8 °F 94% 29.71 in 10.0 mi North 10.4 mph 18.4 mph N/A   Overcast
7:35 PM 53.6 °F 51.8 °F 94% 29.71 in 7.0 mi North 11.5 mph 17.3 mph N/A   Overcast
7:55 PM 53.6 °F 51.8 °F 94% 29.73 in 5.0 mi North 12.7 mph 21.9 mph N/A Rain Rain
8:15 PM 53.6 °F 51.8 °F 94% 29.75 in 7.0 mi North 11.5 mph 17.3 mph N/A   Light Drizzle
8:35 PM 53.6 °F 51.8 °F 94% 29.75 in 10.0 mi North 9.2 mph - N/A   Overcast
8:55 PM 53.6 °F 51.8 °F 94% 29.76 in 10.0 mi North 6.9 mph - N/A   Overcast
9:15 PM 53.6 °F 51.8 °F 94% 29.77 in 10.0 mi North 9.2 mph - N/A   Overcast
9:35 PM 53.6 °F 51.8 °F 94% 29.78 in 10.0 mi North 8.1 mph - N/A   Overcast
9:55 PM 53.6 °F 51.8 °F 94% 29.78 in 10.0 mi NNW 6.9 mph - N/A   Overcast
10:15 PM 51.8 °F 51.8 °F 100% 29.79 in 10.0 mi North 4.6 mph - N/A   Overcast
10:35 PM 51.8 °F 51.8 °F 100% 29.80 in 10.0 mi North 6.9 mph - N/A   Overcast
10:55 PM 51.8 °F 51.8 °F 100% 29.79 in 10.0 mi North 5.8 mph - N/A   Overcast
11:15 PM 51.8 °F 51.8 °F 100% 29.79 in 10.0 mi NNW 5.8 mph - N/A   Mostly Cloudy
11:35 PM 51.8 °F 51.8 °F 100% 29.79 in 10.0 mi NNW 8.1 mph - N/A   Overcast
11:55 PM 51.8 °F 51.8 °F 100% 29.79 in 10.0 mi NNW 6.9 mph - N/A   Overcast